Tracking 31027 objects as of 19-Jul-2025
HD Live streaming from Space Station
objects crossing your sky now

STARLINK-31699

Track STARLINK-31699 now!
10-day predictions
STARLINK-31699 is classified as:


NORAD ID: 59551
Int'l Code: 2024-074T
Perigee: 489.2 km
Apogee: 491.2 km
Inclination: 43.0 °
Period: 94.3 minutes
Semi major axis: 6861 km
RCS: Unknown
Launch date: April 18, 2024
Source: United States (US)
Launch site: AIR FORCE EASTERN TEST RANGE (AFETR)
Your satellite tracking list
Your tracking list is empty




NASA's NSSDC Master Catalog

Two Line Element Set (TLE):
1 59551U 24074T   25199.78844723  .00000428  00000-0  25090-4 0  9995
2 59551  43.0030 224.3427 0001447 279.4289  80.6399 15.27578554 70245
Source of the keplerian elements: AFSPC